Location: Grand Mazuras
(45.9128°N, 1.7636°E)
Time: 04:13:34
(UTC+00:00)

Cosmos 2026 Rocket - Pass Details

Date: 18 April 2021
Orbit: 938 x 1001 km, 82.9° (Epoch: 10 May)

Event Time Altitude Azimuth Distance (km) Brightness Sun altitude
Rises 19:40:58 0° 353° (N) 3,612 7.5 -10.0°
Reaches altitude 10° 19:43:29 10° 357° (N) 2,665 6.7 -10.4°
Maximum altitude 19:49:32 65° 79° (E) 1,032 4.0 -11.3°
Drops below altitude 10° 19:55:35 10° 161° (SSE) 2,671 5.9 -12.2°
Enters shadow 19:56:30 - 163° (SSE) 3,013 6.1 -12.3°
